Time,TemperatureF,DewpointF,PressureIn,WindDirection,WindDirectionDegrees,WindSpeedMPH,WindSpeedGustMPH,Humidity,HourlyPrecipIn,Conditions,Clouds,dailyrainin,SoftwareType,DateUTC
2013-05-03 00:03:00,37.7,36.4,30.19,WNW,302,4.0,11.0,95,0.05,,SKC,0.00,VWS V12.07,2013-05-03 05:03:00,
2013-05-03 00:09:00,37.7,36.4,30.19,NNE,23,7.0,12.0,95,0.05,,SKC,0.01,VWS V12.07,2013-05-03 05:09:00,
2013-05-03 00:16:00,37.7,36.4,30.19,North,349,2.0,12.0,95,0.06,,SKC,0.01,VWS V12.07,2013-05-03 05:16:00,
2013-05-03 00:23:00,37.6,36.3,30.18,North,349,8.0,14.0,95,0.06,,SKC,0.01,VWS V12.07,2013-05-03 05:23:00,
2013-05-03 00:29:00,37.6,36.3,30.19,NNW,341,4.0,14.0,95,0.06,,SKC,0.01,VWS V12.07,2013-05-03 05:29:00,
2013-05-03 00:36:00,37.5,36.2,30.18,North,352,4.0,10.0,95,0.02,,SKC,0.01,VWS V12.07,2013-05-03 05:36:00,
2013-05-03 00:43:00,37.6,36.3,30.18,NW,311,3.0,10.0,95,0.02,,SKC,0.01,VWS V12.07,2013-05-03 05:43:00,
2013-05-03 00:49:00,37.6,36.3,30.18,WNW,302,5.0,10.0,95,0.02,,SKC,0.01,VWS V12.07,2013-05-03 05:49:00,
2013-05-03 00:56:00,37.6,36.3,30.17,NE,51,8.0,12.0,95,0.02,,SKC,0.01,VWS V12.07,2013-05-03 05:56:00,
2013-05-03 01:03:00,37.6,36.3,30.17,North,11,2.0,8.0,95,0.01,,SKC,0.01,VWS V12.07,2013-05-03 06:03:00,
2013-05-03 01:08:00,37.6,36.3,30.16,WNW,289,5.0,14.0,95,0.01,,SKC,0.01,VWS V12.07,2013-05-03 06:08:00,
2013-05-03 01:14:00,37.6,36.3,30.16,ESE,119,3.0,14.0,95,0.01,,SKC,0.01,VWS V12.07,2013-05-03 06:14:00,
2013-05-03 01:21:00,37.6,36.3,30.16,NW,305,4.0,15.0,95,0.01,,SKC,0.01,VWS V12.07,2013-05-03 06:21:00,
2013-05-03 01:28:00,37.7,36.4,30.16,NNW,335,4.0,15.0,95,0.02,,SKC,0.02,VWS V12.07,2013-05-03 06:28:00,
2013-05-03 01:34:00,37.7,36.4,30.16,NNE,19,6.0,7.0,95,0.01,,SKC,0.02,VWS V12.07,2013-05-03 06:34:00,
2013-05-03 01:39:00,37.6,36.3,30.15,NE,34,5.0,11.0,95,0.01,,SKC,0.02,VWS V12.07,2013-05-03 06:39:00,
2013-05-03 01:46:00,37.6,36.3,30.14,NW,310,2.0,13.0,95,0.01,,SKC,0.02,VWS V12.07,2013-05-03 06:46:00,
2013-05-03 01:53:00,37.6,36.3,30.14,NNE,27,1.0,13.0,95,0.01,,SKC,0.02,VWS V12.07,2013-05-03 06:53:00,
2013-05-03 01:58:00,37.5,36.2,30.14,NNE,13,8.0,13.0,95,0.01,,SKC,0.02,VWS V12.07,2013-05-03 06:58:00,
2013-05-03 02:04:00,37.5,36.2,30.15,NW,307,2.0,12.0,95,0.02,,SKC,0.03,VWS V12.07,2013-05-03 07:04:00,
2013-05-03 02:10:00,37.5,36.2,30.14,NE,40,4.0,12.0,95,0.02,,SKC,0.03,VWS V12.07,2013-05-03 07:10:00,
2013-05-03 02:16:00,37.5,36.2,30.14,NW,304,1.0,12.0,95,0.02,,SKC,0.03,VWS V12.07,2013-05-03 07:16:00,
2013-05-03 02:23:00,37.5,36.2,30.13,WNW,295,2.0,12.0,95,0.02,,SKC,0.03,VWS V12.07,2013-05-03 07:23:00,
2013-05-03 02:28:00,37.5,36.2,30.13,NNW,330,4.0,12.0,95,0.02,,SKC,0.03,VWS V12.07,2013-05-03 07:28:00,
2013-05-03 02:34:00,37.4,36.1,30.13,NNW,339,2.0,8.0,95,0.02,,SKC,0.04,VWS V12.07,2013-05-03 07:34:00,
2013-05-03 02:41:00,37.3,36.0,30.12,West,269,3.0,11.0,95,0.02,,SKC,0.04,VWS V12.07,2013-05-03 07:41:00,
2013-05-03 02:48:00,37.3,36.0,30.12,NW,309,1.0,11.0,95,0.04,,SKC,0.06,VWS V12.07,2013-05-03 07:48:00,
2013-05-03 02:53:00,37.3,36.0,30.12,NNW,339,1.0,11.0,95,0.05,,SKC,0.07,VWS V12.07,2013-05-03 07:53:00,
2013-05-03 02:59:00,37.3,36.3,30.12,NNW,328,6.0,11.0,96,0.06,,SKC,0.08,VWS V12.07,2013-05-03 07:59:00,
2013-05-03 03:06:00,37.3,36.3,30.12,NNE,18,5.0,8.0,96,0.06,,SKC,0.09,VWS V12.07,2013-05-03 08:06:00,
2013-05-03 03:13:00,37.3,36.3,30.12,NW,309,4.0,8.0,96,0.06,,SKC,0.09,VWS V12.07,2013-05-03 08:13:00,
2013-05-03 03:18:00,37.3,36.3,30.13,WNW,283,1.0,10.0,96,0.07,,SKC,0.10,VWS V12.07,2013-05-03 08:18:00,
2013-05-03 03:24:00,37.3,36.3,30.13,NNW,345,4.0,10.0,96,0.08,,SKC,0.11,VWS V12.07,2013-05-03 08:24:00,
2013-05-03 03:30:00,37.3,36.3,30.12,NNE,25,6.0,6.0,96,0.10,,SKC,0.13,VWS V12.07,2013-05-03 08:30:00,
2013-05-03 03:36:00,37.2,36.2,30.12,WSW,244,2.0,7.0,96,0.10,,SKC,0.13,VWS V12.07,2013-05-03 08:36:00,
2013-05-03 03:43:00,37.2,36.2,30.12,NNE,12,3.0,9.0,96,0.11,,SKC,0.14,VWS V12.07,2013-05-03 08:43:00,
2013-05-03 03:48:00,37.2,36.2,30.11,NNW,335,2.0,9.0,96,0.11,,SKC,0.14,VWS V12.07,2013-05-03 08:48:00,
2013-05-03 03:54:00,37.2,36.2,30.11,ENE,57,4.0,10.0,96,0.12,,SKC,0.15,VWS V12.07,2013-05-03 08:54:00,
2013-05-03 04:00:00,37.2,36.2,30.11,NNW,328,3.0,10.0,96,0.13,,SKC,0.16,VWS V12.07,2013-05-03 09:00:00,
2013-05-03 04:06:00,37.1,36.1,30.11,NW,304,5.0,10.0,96,0.09,,SKC,0.17,VWS V12.07,2013-05-03 09:06:00,
2013-05-03 04:13:00,37.1,36.1,30.11,NNW,347,3.0,10.0,96,0.09,,SKC,0.18,VWS V12.07,2013-05-03 09:13:00,
2013-05-03 04:18:00,37.1,36.1,30.11,WNW,302,2.0,10.0,96,0.10,,SKC,0.19,VWS V12.07,2013-05-03 09:18:00,
2013-05-03 04:23:00,37.1,36.1,30.12,NNW,327,3.0,10.0,96,0.12,,SKC,0.20,VWS V12.07,2013-05-03 09:23:00,
2013-05-03 04:29:00,37.1,36.1,30.11,NNE,12,4.0,10.0,96,0.12,,SKC,0.20,VWS V12.07,2013-05-03 09:29:00,
2013-05-03 04:36:00,37.1,36.1,30.11,SSW,208,4.0,11.0,96,0.09,,SKC,0.22,VWS V12.07,2013-05-03 09:36:00,
2013-05-03 04:43:00,37.0,36.0,30.12,NW,319,6.0,11.0,96,0.10,,SKC,0.23,VWS V12.07,2013-05-03 09:43:00,
2013-05-03 04:48:00,37.0,36.0,30.12,NE,34,5.0,11.0,96,0.11,,SKC,0.24,VWS V12.07,2013-05-03 09:48:00,
2013-05-03 04:54:00,37.0,36.0,30.11,North,6,6.0,11.0,96,0.12,,SKC,0.25,VWS V12.07,2013-05-03 09:54:00,
2013-05-03 05:01:00,37.0,36.0,30.12,NW,323,7.0,7.0,96,0.13,,SKC,0.26,VWS V12.07,2013-05-03 10:01:00,
2013-05-03 05:08:00,37.0,36.0,30.12,WNW,301,4.0,8.0,96,0.11,,SKC,0.27,VWS V12.07,2013-05-03 10:08:00,
2013-05-03 05:13:00,37.0,36.0,30.12,West,273,1.0,10.0,96,0.11,,SKC,0.27,VWS V12.07,2013-05-03 10:13:00,
2013-05-03 05:19:00,37.0,35.7,30.11,NNE,33,7.0,11.0,95,0.12,,SKC,0.28,VWS V12.07,2013-05-03 10:19:00,
2013-05-03 05:26:00,36.9,35.6,30.11,NNW,333,7.0,14.0,95,0.13,,SKC,0.30,VWS V12.07,2013-05-03 10:26:00,
2013-05-03 05:33:00,36.9,35.6,30.11,NNW,333,4.0,9.0,95,0.12,,SKC,0.32,VWS V12.07,2013-05-03 10:33:00,
2013-05-03 05:38:00,36.8,35.5,30.10,WNW,294,7.0,11.0,95,0.13,,SKC,0.33,VWS V12.07,2013-05-03 10:38:00,
2013-05-03 05:44:00,36.9,35.6,30.10,NW,313,4.0,12.0,95,0.14,,SKC,0.34,VWS V12.07,2013-05-03 10:44:00,
2013-05-03 05:51:00,36.9,35.9,30.09,WNW,301,3.0,12.0,96,0.15,,SKC,0.35,VWS V12.07,2013-05-03 10:51:00,
2013-05-03 05:58:00,36.8,35.8,30.10,NW,321,3.0,12.0,96,0.16,,SKC,0.36,VWS V12.07,2013-05-03 10:58:00,
2013-05-03 06:04:00,36.8,35.8,30.10,North,6,2.0,11.0,96,0.10,,SKC,0.36,VWS V12.07,2013-05-03 11:04:00,
2013-05-03 06:11:00,36.8,35.8,30.10,NW,326,6.0,11.0,96,0.11,,SKC,0.37,VWS V12.07,2013-05-03 11:11:00,
2013-05-03 06:18:00,36.8,35.8,30.10,North,354,5.0,11.0,96,0.13,,SKC,0.39,VWS V12.07,2013-05-03 11:18:00,
2013-05-03 06:24:00,36.7,35.7,30.10,NW,321,2.0,11.0,96,0.15,,SKC,0.41,VWS V12.07,2013-05-03 11:24:00,
2013-05-03 06:31:00,36.7,35.7,30.09,NNW,342,2.0,10.0,96,0.12,,SKC,0.43,VWS V12.07,2013-05-03 11:31:00,
2013-05-03 06:38:00,36.7,35.7,30.09,NNW,337,3.0,10.0,96,0.12,,SKC,0.43,VWS V12.07,2013-05-03 11:38:00,
2013-05-03 06:44:00,36.6,35.6,30.09,WNW,283,8.0,13.0,96,0.13,,SKC,0.44,VWS V12.07,2013-05-03 11:44:00,
2013-05-03 06:51:00,36.6,35.6,30.09,NW,325,4.0,14.0,96,0.14,,SKC,0.45,VWS V12.07,2013-05-03 11:51:00,
2013-05-03 06:58:00,36.5,35.5,30.09,North,359,7.0,14.0,96,0.15,,SKC,0.46,VWS V12.07,2013-05-03 11:58:00,
2013-05-03 07:04:00,36.5,35.5,30.08,WNW,293,5.0,7.0,96,0.10,,SKC,0.46,VWS V12.07,2013-05-03 12:04:00,
2013-05-03 07:11:00,36.5,35.5,30.08,NE,47,3.0,12.0,96,0.12,,SKC,0.48,VWS V12.07,2013-05-03 12:11:00,
2013-05-03 07:18:00,36.5,35.5,30.08,NE,44,4.0,16.0,96,0.13,,SKC,0.49,VWS V12.07,2013-05-03 12:18:00,
2013-05-03 07:24:00,36.4,35.4,30.07,WNW,302,4.0,16.0,96,0.13,,SKC,0.49,VWS V12.07,2013-05-03 12:24:00,
2013-05-03 07:31:00,36.4,35.4,30.08,NW,318,7.0,10.0,96,0.14,,SKC,0.50,VWS V12.07,2013-05-03 12:31:00,
2013-05-03 07:38:00,36.4,35.4,30.07,NW,322,4.0,10.0,96,0.07,,SKC,0.50,VWS V12.07,2013-05-03 12:38:00,
2013-05-03 07:44:00,36.4,35.4,30.07,NNE,14,8.0,11.0,96,0.07,,SKC,0.50,VWS V12.07,2013-05-03 12:44:00,
2013-05-03 07:51:00,36.4,35.4,30.07,NE,34,9.0,11.0,96,0.08,,SKC,0.51,VWS V12.07,2013-05-03 12:51:00,
2013-05-03 07:58:00,36.3,35.3,30.07,NNW,347,6.0,12.0,96,0.11,,SKC,0.54,VWS V12.07,2013-05-03 12:58:00,
2013-05-03 08:04:00,36.3,35.0,30.07,NW,311,7.0,15.0,95,0.09,,SKC,0.55,VWS V12.07,2013-05-03 13:04:00,
2013-05-03 08:11:00,36.3,35.0,30.06,NE,47,8.0,16.0,95,0.11,,SKC,0.57,VWS V12.07,2013-05-03 13:11:00,
2013-05-03 08:18:00,36.3,35.3,30.06,NW,319,7.0,22.0,96,0.12,,SKC,0.58,VWS V12.07,2013-05-03 13:18:00,
2013-05-03 08:24:00,36.4,35.4,30.06,North,5,17.0,22.0,96,0.13,,SKC,0.59,VWS V12.07,2013-05-03 13:24:00,
2013-05-03 08:31:00,36.4,35.1,30.06,NW,319,3.0,8.0,95,0.14,,SKC,0.61,VWS V12.07,2013-05-03 13:31:00,
2013-05-03 08:38:00,36.5,35.2,30.06,NE,40,8.0,13.0,95,0.11,,SKC,0.62,VWS V12.07,2013-05-03 13:38:00,
2013-05-03 08:45:00,36.6,35.6,30.06,NNE,12,7.0,13.0,96,0.12,,SKC,0.62,VWS V12.07,2013-05-03 13:45:00,
2013-05-03 08:51:00,36.5,35.2,30.06,NW,322,9.0,13.0,95,0.12,,SKC,0.62,VWS V12.07,2013-05-03 13:51:00,
2013-05-03 08:58:00,36.6,35.3,30.06,North,8,2.0,13.0,95,0.13,,SKC,0.63,VWS V12.07,2013-05-03 13:58:00,
2013-05-03 09:04:00,36.6,35.6,30.06,WNW,301,2.0,11.0,96,0.10,,SKC,0.64,VWS V12.07,2013-05-03 14:04:00,
2013-05-03 09:11:00,36.6,35.3,30.06,NNW,338,7.0,13.0,95,0.11,,SKC,0.65,VWS V12.07,2013-05-03 14:11:00,
2013-05-03 09:18:00,36.6,35.3,30.06,NNW,338,6.0,13.0,95,0.12,,SKC,0.67,VWS V12.07,2013-05-03 14:18:00,
2013-05-03 09:24:00,36.7,35.4,30.05,North,354,11.0,15.0,95,0.14,,SKC,0.68,VWS V12.07,2013-05-03 14:24:00,
2013-05-03 09:31:00,36.8,35.8,30.05,ESE,116,3.0,11.0,96,0.16,,SKC,0.70,VWS V12.07,2013-05-03 14:31:00,
2013-05-03 09:38:00,36.9,35.6,30.05,North,5,2.0,11.0,95,0.12,,SKC,0.72,VWS V12.07,2013-05-03 14:38:00,
2013-05-03 09:45:00,37.0,35.7,30.05,WNW,298,3.0,12.0,95,0.14,,SKC,0.74,VWS V12.07,2013-05-03 14:45:00,
2013-05-03 09:51:00,37.1,36.1,30.05,North,359,7.0,14.0,96,0.14,,SKC,0.75,VWS V12.07,2013-05-03 14:51:00,
2013-05-03 09:58:00,37.1,35.8,30.05,NNE,30,8.0,16.0,95,0.15,,SKC,0.76,VWS V12.07,2013-05-03 14:58:00,
2013-05-03 10:04:00,37.2,36.2,30.04,NNE,33,6.0,15.0,96,0.14,,SKC,0.77,VWS V12.07,2013-05-03 15:04:00,
2013-05-03 10:11:00,37.3,36.3,30.05,NE,51,3.0,15.0,96,0.16,,SKC,0.79,VWS V12.07,2013-05-03 15:11:00,
2013-05-03 10:18:00,37.4,36.4,30.04,NW,325,4.0,15.0,96,0.17,,SKC,0.80,VWS V12.07,2013-05-03 15:18:00,
2013-05-03 10:24:00,37.5,36.5,30.04,NNW,329,2.0,15.0,96,0.18,,SKC,0.81,VWS V12.07,2013-05-03 15:24:00,
2013-05-03 10:31:00,37.6,36.6,30.05,NNE,20,5.0,9.0,96,0.12,,SKC,0.82,VWS V12.07,2013-05-03 15:31:00,
2013-05-03 10:38:00,37.6,36.6,30.04,East,88,1.0,13.0,96,0.12,,SKC,0.82,VWS V12.07,2013-05-03 15:38:00,
2013-05-03 10:44:00,37.7,36.7,30.04,WNW,285,6.0,13.0,96,0.12,,SKC,0.82,VWS V12.07,2013-05-03 15:44:00,
2013-05-03 10:52:00,37.7,36.4,30.04,North,358,4.0,15.0,95,0.13,,SKC,0.83,VWS V12.07,2013-05-03 15:52:00,
2013-05-03 10:59:00,37.7,36.4,30.03,NE,43,6.0,15.0,95,0.15,,SKC,0.85,VWS V12.07,2013-05-03 15:59:00,
2013-05-03 11:04:00,37.7,36.4,30.02,NNW,342,3.0,18.0,95,0.10,,SKC,0.86,VWS V12.07,2013-05-03 16:04:00,
2013-05-03 11:11:00,37.7,36.4,30.04,NNE,13,5.0,18.0,95,0.12,,SKC,0.88,VWS V12.07,2013-05-03 16:11:00,
2013-05-03 11:18:00,37.8,36.8,30.03,NE,41,4.0,18.0,96,0.13,,SKC,0.90,VWS V12.07,2013-05-03 16:18:00,
2013-05-03 11:24:00,37.8,36.8,30.04,NNE,22,9.0,18.0,96,0.15,,SKC,0.91,VWS V12.07,2013-05-03 16:24:00,
2013-05-03 11:31:00,37.9,36.9,30.04,NNW,345,6.0,14.0,96,0.16,,SKC,0.92,VWS V12.07,2013-05-03 16:31:00,
2013-05-03 11:38:00,38.1,37.1,30.03,WSW,243,2.0,14.0,96,0.12,,SKC,0.94,VWS V12.07,2013-05-03 16:38:00,
2013-05-03 11:44:00,38.2,37.2,30.03,NW,316,3.0,14.0,96,0.13,,SKC,0.95,VWS V12.07,2013-05-03 16:44:00,
2013-05-03 11:51:00,38.4,37.4,30.02,NE,49,3.0,14.0,96,0.14,,SKC,0.96,VWS V12.07,2013-05-03 16:51:00,
2013-05-03 11:58:00,38.5,37.5,30.01,NW,318,10.0,14.0,96,0.15,,SKC,0.97,VWS V12.07,2013-05-03 16:58:00,
2013-05-03 12:04:00,38.4,37.4,29.99,North,357,6.0,12.0,96,0.14,,SKC,0.99,VWS V12.07,2013-05-03 17:04:00,
2013-05-03 12:11:00,38.3,37.3,30.00,NE,40,5.0,13.0,96,0.15,,SKC,1.00,VWS V12.07,2013-05-03 17:11:00,
2013-05-03 12:19:00,38.5,37.5,29.99,NNE,15,7.0,13.0,96,0.17,,SKC,1.02,VWS V12.07,2013-05-03 17:19:00,
2013-05-03 12:24:00,38.4,37.4,29.99,NNE,29,4.0,13.0,96,0.18,,SKC,1.03,VWS V12.07,2013-05-03 17:24:00,
2013-05-03 12:31:00,38.4,37.4,30.00,NNW,330,1.0,6.0,96,0.20,,SKC,1.05,VWS V12.07,2013-05-03 17:31:00,
2013-05-03 12:38:00,38.5,37.5,30.01,ENE,73,0.0,9.0,96,0.14,,SKC,1.06,VWS V12.07,2013-05-03 17:38:00,
2013-05-03 12:44:00,38.5,37.5,30.02,NW,309,1.0,9.0,96,0.16,,SKC,1.08,VWS V12.07,2013-05-03 17:44:00,
2013-05-03 12:51:00,38.5,37.5,30.02,NNE,25,4.0,10.0,96,0.18,,SKC,1.10,VWS V12.07,2013-05-03 17:51:00,
2013-05-03 12:58:00,38.5,37.5,30.01,NW,323,3.0,10.0,96,0.20,,SKC,1.12,VWS V12.07,2013-05-03 17:58:00,
2013-05-03 13:04:00,38.7,37.7,30.01,NNW,335,2.0,6.0,96,0.16,,SKC,1.14,VWS V12.07,2013-05-03 18:04:00,
2013-05-03 13:11:00,38.8,37.8,30.00,NNW,346,3.0,8.0,96,0.17,,SKC,1.15,VWS V12.07,2013-05-03 18:11:00,
2013-05-03 13:18:00,38.9,37.9,29.99,NNE,15,5.0,10.0,96,0.18,,SKC,1.17,VWS V12.07,2013-05-03 18:18:00,
2013-05-03 13:25:00,39.1,38.1,29.97,West,280,2.0,10.0,96,0.20,,SKC,1.18,VWS V12.07,2013-05-03 18:25:00,
2013-05-03 13:31:00,39.2,38.2,29.97,NE,45,5.0,7.0,96,0.21,,SKC,1.19,VWS V12.07,2013-05-03 18:31:00,
2013-05-03 13:38:00,39.2,38.2,29.97,NE,56,7.0,11.0,96,0.15,,SKC,1.20,VWS V12.07,2013-05-03 18:38:00,
2013-05-03 13:44:00,39.3,38.3,29.97,NE,51,4.0,11.0,96,0.15,,SKC,1.20,VWS V12.07,2013-05-03 18:44:00,
2013-05-03 13:51:00,39.4,38.4,29.97,NE,40,4.0,12.0,96,0.16,,SKC,1.21,VWS V12.07,2013-05-03 18:51:00,
2013-05-03 13:58:00,39.4,38.4,29.96,NNW,347,9.0,12.0,96,0.16,,SKC,1.21,VWS V12.07,2013-05-03 18:58:00,
2013-05-03 14:04:00,39.5,38.5,29.97,North,353,3.0,7.0,96,0.08,,SKC,1.22,VWS V12.07,2013-05-03 19:04:00,
2013-05-03 14:11:00,39.7,38.7,29.97,NW,312,1.0,7.0,96,0.10,,SKC,1.23,VWS V12.07,2013-05-03 19:11:00,
2013-05-03 14:18:00,39.6,38.6,29.98,WNW,289,3.0,7.0,96,0.11,,SKC,1.25,VWS V12.07,2013-05-03 19:18:00,
2013-05-03 14:24:00,39.6,38.6,29.98,NW,319,0.0,8.0,96,0.12,,SKC,1.26,VWS V12.07,2013-05-03 19:24:00,
2013-05-03 14:31:00,39.6,38.6,29.97,NW,314,4.0,8.0,96,0.14,,SKC,1.27,VWS V12.07,2013-05-03 19:31:00,
2013-05-03 14:39:00,39.7,38.7,29.97,NW,321,3.0,8.0,96,0.09,,SKC,1.28,VWS V12.07,2013-05-03 19:39:00,
2013-05-03 14:44:00,39.8,38.8,29.97,North,5,2.0,8.0,96,0.09,,SKC,1.28,VWS V12.07,2013-05-03 19:44:00,
2013-05-03 14:51:00,39.7,38.7,29.97,WNW,295,4.0,9.0,96,0.10,,SKC,1.29,VWS V12.07,2013-05-03 19:51:00,
2013-05-03 14:58:00,39.7,38.7,29.97,WNW,302,0.0,10.0,96,0.12,,SKC,1.31,VWS V12.07,2013-05-03 19:58:00,
2013-05-03 15:04:00,39.8,38.8,29.98,NNW,330,4.0,6.0,96,0.11,,SKC,1.32,VWS V12.07,2013-05-03 20:04:00,
2013-05-03 15:11:00,39.7,38.7,29.98,NW,321,6.0,6.0,96,0.13,,SKC,1.34,VWS V12.07,2013-05-03 20:11:00,
2013-05-03 15:18:00,39.7,38.7,29.97,North,6,3.0,6.0,96,0.15,,SKC,1.36,VWS V12.07,2013-05-03 20:18:00,
2013-05-03 15:24:00,39.8,38.8,29.97,NW,314,3.0,8.0,96,0.16,,SKC,1.37,VWS V12.07,2013-05-03 20:24:00,
2013-05-03 15:31:00,40.0,39.0,29.96,NNW,343,1.0,5.0,96,0.17,,SKC,1.38,VWS V12.07,2013-05-03 20:31:00,
2013-05-03 15:38:00,40.0,39.0,29.95,NNE,26,5.0,9.0,96,0.12,,SKC,1.39,VWS V12.07,2013-05-03 20:38:00,
2013-05-03 15:45:00,39.9,38.8,29.94,NNW,328,3.0,9.0,96,0.13,,SKC,1.40,VWS V12.07,2013-05-03 20:45:00,
2013-05-03 15:51:00,39.9,38.8,29.94,North,4,5.0,11.0,96,0.14,,SKC,1.41,VWS V12.07,2013-05-03 20:51:00,
2013-05-03 15:59:00,39.9,38.8,29.95,WNW,297,1.0,11.0,96,0.15,,SKC,1.42,VWS V12.07,2013-05-03 20:59:00,
2013-05-03 16:04:00,39.8,38.8,29.94,NW,322,3.0,9.0,96,0.12,,SKC,1.43,VWS V12.07,2013-05-03 21:04:00,
2013-05-03 16:11:00,39.8,38.8,29.94,SE,134,3.0,9.0,96,0.13,,SKC,1.44,VWS V12.07,2013-05-03 21:11:00,
2013-05-03 16:18:00,39.8,38.8,29.94,West,281,2.0,12.0,96,0.14,,SKC,1.45,VWS V12.07,2013-05-03 21:18:00,
2013-05-03 16:24:00,39.9,38.8,29.94,WNW,297,5.0,12.0,96,0.15,,SKC,1.46,VWS V12.07,2013-05-03 21:24:00,
2013-05-03 16:31:00,40.0,39.0,29.95,NW,308,3.0,4.0,96,0.15,,SKC,1.46,VWS V12.07,2013-05-03 21:31:00,
2013-05-03 16:38:00,40.1,39.0,29.95,NNE,30,2.0,10.0,96,0.09,,SKC,1.47,VWS V12.07,2013-05-03 21:38:00,
2013-05-03 16:44:00,40.1,39.0,29.95,North,349,4.0,10.0,96,0.09,,SKC,1.47,VWS V12.07,2013-05-03 21:44:00,
2013-05-03 16:51:00,40.1,39.0,29.95,WNW,286,6.0,10.0,96,0.10,,SKC,1.48,VWS V12.07,2013-05-03 21:51:00,
2013-05-03 16:58:00,40.1,39.0,29.94,NE,40,3.0,10.0,96,0.10,,SKC,1.49,VWS V12.07,2013-05-03 21:58:00,
2013-05-03 17:04:00,40.1,39.0,29.95,West,270,2.0,7.0,96,0.08,,SKC,1.50,VWS V12.07,2013-05-03 22:04:00,
2013-05-03 17:12:00,40.1,39.0,29.94,NNE,29,3.0,7.0,96,0.10,,SKC,1.52,VWS V12.07,2013-05-03 22:12:00,
2013-05-03 17:18:00,40.1,39.0,29.94,West,278,2.0,9.0,96,0.11,,SKC,1.53,VWS V12.07,2013-05-03 22:18:00,
2013-05-03 17:25:00,40.1,39.0,29.94,NW,312,3.0,9.0,96,0.12,,SKC,1.54,VWS V12.07,2013-05-03 22:25:00,
2013-05-03 17:31:00,40.1,39.0,29.93,WNW,302,3.0,5.0,96,0.09,,SKC,1.55,VWS V12.07,2013-05-03 22:31:00,
2013-05-03 17:38:00,40.1,39.0,29.93,NW,318,5.0,11.0,96,0.10,,SKC,1.56,VWS V12.07,2013-05-03 22:38:00,
2013-05-03 17:44:00,40.1,39.0,29.92,NW,325,3.0,14.0,96,0.11,,SKC,1.57,VWS V12.07,2013-05-03 22:44:00,
2013-05-03 17:47:00,40.0,39.0,29.92,NW,323,3.0,14.0,96,0.11,,SKC,1.57,VWS V12.07,2013-05-03 22:47:00,
2013-05-03 17:51:00,40.0,39.0,29.92,NW,323,3.0,14.0,96,0.11,,SKC,1.57,VWS V12.07,2013-05-03 22:51:00,